Cape Parry, Northwest Territories

7:28 PM MDT on July 26, 2017 (GMT -0600)
Cape Parry

Weather History for CZCP - July, 2013

Change the Weather History Date:

Thursday, July 18, 2013

  Actual Average Record
Temperature  
Mean Temperature 38 °F -  
Max Temperature 41 °F 47 °F - ()
Min Temperature 35 °F 37 °F - ()
Degree Days  
Heating Degree Days 27    
Moisture  
Dew Point -    
Average Humidity    
Maximum Humidity    
Minimum Humidity    
Precipitation  
Precipitation 0.00 in 0.03 in - ()
Sea Level Pressure  
Sea Level Pressure 30.08 in    
Wind  
Wind Speed 13 mph ()    
Max Wind Speed 22 mph    
Max Gust Speed -    
Visibility 9.0 miles    
Events      
T = Trace of Precipitation, MM = Missing Value Source: Averaged Metar Reports

Daily Weather History Graph

Daily Weather History Graph

Search for Another Location

Airport or City:

Trip Planner

Search our weather history database for the weather conditions in past years. The results will help you decide how hot, cold, wet, or windy it might be!

Date:

Astronomy

Dec. 31, 1969 Rise Set
Actual Time Sun does not set Sun does not set
Civil Twilight Sun does not set Sun does not set
Nautical Twilight Sun does not set Sun does not set
Astronomical Twilight Sun does not set Sun does not set
Moon 10:11 PM MDT (7/18) 11:24 PM MDT (7/18)
Length of Visible Light 24h 00m
Length of Day
24h 00m
Waxing Gibbous, 78% of the Moon is Illuminated
Jul 18
Waxing Gibbous
Jul 22
Full
Jul 29
Last Quarter
Aug 6
New
Aug 14
First Quarter

Hourly Weather History & Observations

Time (MDT) Temp. Windchill Dew Point Humidity Pressure Visibility Wind Dir Wind Speed Gust Speed Precip Events Conditions
12:00 AM 40 °F - - % 30.04 in 9 mi East 13.8 mph - -  
12:00 AM 41.0 °F 33.1 °F - N/A% 30.04 in 9.0 mi East 15.0 mph - N/A   Clear
1:00 AM 39.2 °F 31.6 °F - N/A% 30.05 in 9.0 mi East 12.7 mph - N/A   Clear
2:00 AM 37.4 °F 28.5 °F - N/A% 30.05 in 9.0 mi East 15.0 mph - N/A   Clear
3:00 AM 37 °F - - % 30.05 in 9 mi East 16.1 mph - -  
3:00 AM 37.4 °F 28.5 °F - N/A% 30.05 in 9.0 mi East 15.0 mph - N/A   Clear
4:00 AM 37.4 °F 28.5 °F - N/A% 30.06 in 9.0 mi East 15.0 mph - N/A   Clear
5:00 AM 37.4 °F 28.9 °F - N/A% 30.07 in 9.0 mi East 13.8 mph - N/A   Clear
6:00 AM 39 °F - - % 30.08 in 9 mi ENE 13.8 mph - -  
6:00 AM 39.2 °F 31.2 °F - N/A% 30.08 in 9.0 mi ENE 13.8 mph - N/A   Clear
7:00 AM 37.4 °F 29.8 °F - N/A% 30.09 in 9.0 mi ENE 11.5 mph - N/A   Clear
8:00 AM 35.6 °F 27.5 °F - N/A% 30.07 in 9.0 mi ENE 11.5 mph - N/A   Clear
9:00 AM 39 °F - - % 30.07 in 9 mi East 10.4 mph - -  
9:00 AM 39.2 °F 32.5 °F - N/A% 30.07 in 9.0 mi East 10.4 mph - N/A   Clear
10:00 AM 39.2 °F 32.0 °F - N/A% 30.09 in 9.0 mi ENE 11.5 mph - N/A   Clear
11:00 AM 37.4 °F 30.3 °F - N/A% 30.08 in 9.0 mi ENE 10.4 mph - N/A   Clear
12:00 PM 37.4 °F 28.9 °F - N/A% 30.09 in 9.0 mi ENE 13.8 mph - N/A   Clear
1:00 PM 39.2 °F 30.8 °F - N/A% 30.10 in 9.0 mi ENE 15.0 mph - N/A   Clear
2:00 PM 39.2 °F 29.8 °F - N/A% 30.10 in 9.0 mi ENE 18.4 mph - N/A   Clear
3:00 PM 41.0 °F 31.9 °F - N/A% 30.09 in 9.0 mi East 19.6 mph - N/A   Clear
4:00 PM 39.2 °F 29.8 °F - N/A% 30.10 in 9.0 mi East 18.4 mph - N/A   Clear
5:00 PM 41.0 °F 32.5 °F - N/A% 30.11 in 9.0 mi East 17.3 mph - N/A   Clear
6:00 PM 40 °F - - % 30.11 in 9 mi East 18.4 mph - -  
6:00 PM 41.0 °F 32.5 °F - N/A% 30.11 in 9.0 mi East 17.3 mph - N/A   Clear
7:00 PM 41.0 °F 32.2 °F - N/A% 30.12 in 9.0 mi East 18.4 mph - N/A   Clear
8:00 PM 41.0 °F 31.6 °F - N/A% 30.11 in 9.0 mi East 20.7 mph - N/A   Clear
9:00 PM 41 °F - - % 30.11 in 9 mi East 21.9 mph - -  
9:00 PM 41.0 °F 31.6 °F - N/A% 30.11 in 9.0 mi East 20.7 mph - N/A   Clear
10:00 PM 39.2 °F 29.8 °F - N/A% 30.11 in 9.0 mi East 18.4 mph - N/A   Clear
11:00 PM 39.2 °F 30.2 °F - N/A% 30.11 in 9.0 mi East 17.3 mph - N/A   Clear